TimeCDT,TemperatureF,Dew PointF,Humidity,Sea Level PressureIn,VisibilityMPH,Wind Direction,Wind SpeedMPH,Gust SpeedMPH,PrecipitationIn,Events,Conditions,WindDirDegrees,DateUTC
12:50 AM,58,39,37,29.89,6,Calm,Calm,,,,,,2012-10-05 05:50:00
3:57 AM,54,37,40,29.95,6,Calm,Calm,,,,,,2012-10-05 08:57:00
6:01 AM,41.0,35.6,81,30.34,8.0,Calm,Calm,-,N/A,,Clear,0,2012-10-05 11:01:00
6:43 AM,39.2,35.6,87,30.05,8.0,NE,4.6,-,N/A,,Clear,40,2012-10-05 11:43:00
6:50 AM,50,36,48,30.04,9,West,2.2,,,,,280,2012-10-05 11:50:00
7:41 AM,39.2,33.8,81,30.36,14.0,Calm,Calm,-,N/A,,Clear,0,2012-10-05 12:41:00
8:42 AM,44.6,37.4,76,30.37,14.0,Calm,Calm,-,N/A,,Clear,0,2012-10-05 13:42:00
9:41 AM,57.2,39.2,51,30.04,14.0,Calm,Calm,-,N/A,,Clear,0,2012-10-05 14:41:00
9:55 AM,56,42,50,30.14,19,ESE,2.2,,,,,120,2012-10-05 14:55:00
10:40 AM,64.4,33.8,32,30.39,14.0,Calm,Calm,-,N/A,,Clear,0,2012-10-05 15:40:00
11:49 AM,71.6,33.8,25,30.38,14.0,Calm,Calm,-,N/A,,Clear,0,2012-10-05 16:49:00
12:40 PM,75,40,18,30.09,19,SSW,2.2,,,,,210,2012-10-05 17:40:00
12:44 PM,75.2,32.0,21,29.95,14.0,Calm,Calm,-,N/A,,Clear,0,2012-10-05 17:44:00
1:43 PM,77.0,28.4,17,30.32,14.0,SE,6.9,-,N/A,,Clear,140,2012-10-05 18:43:00
2:44 PM,77.0,23.0,13,30.28,14.0,NW,6.9,-,N/A,,Clear,320,2012-10-05 19:44:00
3:52 PM,78.8,26.6,15,29.92,14.0,North,6.9,-,N/A,,Clear,360,2012-10-05 20:52:00
3:55 PM,83,41,13,29.89,19,WSW,2.2,,,,Scattered Clouds,240,2012-10-05 20:55:00
4:47 PM,78.8,24.8,14,30.21,14.0,West,9.2,-,N/A,,Clear,280,2012-10-05 21:47:00
5:44 PM,80.6,24.8,13,30.20,14.0,North,5.8,-,N/A,,Clear,10,2012-10-05 22:44:00
6:47 PM,78.8,24.8,14,29.93,14.0,NNW,8.1,-,N/A,,Clear,340,2012-10-05 23:47:00
6:50 PM,79,40,15,29.77,19,WNW,2.2,,,,Scattered Clouds,290,2012-10-05 23:50:00
7:43 PM,75.2,30.2,19,30.21,14.0,NE,2.3,-,N/A,,Clear,50,2012-10-06 00:43:00
8:50 PM,68.0,30.2,24,30.23,14.0,NE,2.3,-,N/A,,Clear,50,2012-10-06 01:50:00
9:50 PM,62.6,33.8,34,30.25,14.0,NE,2.3,-,N/A,,Clear,50,2012-10-06 02:50:00
9:55 PM,68,42,28,29.74,9,NNE,2.2,,,,,30,2012-10-06 02:55:00
10:48 PM,62.6,33.8,34,30.27,14.0,NE,11.5,-,N/A,,Clear,50,2012-10-06 03:48:00